STARLINK-3838 (52352 NORAD) Tracking and Keplerian Element Data
This shows tracking and keplerian element data for the satellite.
Feedback or suggestion? Click here.
Element | Value |
Catalog | 52352 |
Name | STARLINK-3838 |
Epoch Orbit | 130 |
Epoch Day | 167.08334491 |
Epoch Year | 2022 |
RAAN | 202.9874 |
Inclination | 53.2174 |
Eccentricity | 0.0001475 |
Argument of Perigee | 48.5869 |
Mean Anonmoly | 106.754 |
Mean Motion | 15.62271583 |
Decay Rate | -0.0071493 |
L1 | 1 52352U 22045X 22167.08334491 -.00714930 00000+0 -86775-2 0 9990 |
L2 | 2 52352 53.2174 202.9874 0001475 48.5869 106.7540 15.62271583 1307 |
Live tracking and technical data element details for STARLINK-3838 (NORAD 52352). STARLINK-3838 can be tracked NOW for your location showing map with azimuth and elevation plus other details from your city location.
Track the satellite on the map from your city or location and see movement details for azimuth, elevation, latitude, longitude, range, height, and movement on the map or in text.
IsCatalogInMostPopularTable: catalog: 52352, numindb: 1
Update: records affected: 1
GetName: 52352 STARLINK-3838
Hit Count: updated at: Sat, 25 Jun 2022 04:29:40 GMT